Weather History for Boonville, MO

Change the Weather History Date:

Monday, September 3, 2012

  Actual Average Record
Temperature  
Mean Temperature 80 °F -  
Max Temperature 104 °F 84 °F 104 °F (2012)
Min Temperature 66 °F 63 °F 46 °F (1974)
Cooling Degree Days 14    
Growing Degree Days 30 (Base 50)    
Moisture  
Dew Point 68 °F    
Average Humidity 72    
Maximum Humidity 99    
Minimum Humidity 38    
Precipitation  
Precipitation 0.00 in - - ()
Sea Level Pressure  
Sea Level Pressure 29.90 in    
Wind  
Wind Speed 2 mph (ENE)    
Max Wind Speed 7 mph    
Max Gust Speed -    
Visibility 8 miles    
Events      
Averages and records for this station are not official NWS values.
T = Trace of Precipitation, MM = Missing Value Source: NWS Daily Summary

Daily Weather History Graph

Daily Weather History Graph

Search for Another Location

Airport:

Trip Planner

Search our weather history database for the weather conditions in past years. The results will help you decide how hot, cold, wet, or windy it might be!

Date:

Astronomy

Sep. 03, 2012 Rise Set
Actual Time 6:41 AM CDT 7:37 PM CDT
Civil Twilight 6:14 AM CDT 8:04 PM CDT
Nautical Twilight 5:42 AM CDT 8:36 PM CDT
Astronomical Twilight 5:08 AM CDT 9:09 PM CDT
Moon 8:59 PM CDT (9/3) 9:48 AM CDT (9/3)
Length of Visible Light 13h 49m
Length of Day
12h 55m
Waning Gibbous, 90% of the Moon is Illuminated
Sep 3
Waning Gibbous
Sep 8
Last Quarter
Sep 15
New
Sep 22
First Quarter
Sep 29
Full

Hourly Weather History & Observations

Time (CDT) Temp. Heat Index Dew Point Humidity Pressure Visibility Wind Dir Wind Speed Gust Speed Precip Events Conditions
12:15 AM 72.9 °F - 71.1 °F 94% 29.90 in 10.0 mi Calm Calm - N/A   Clear
12:35 AM 71.8 °F - 70.7 °F 96% 29.89 in 7.0 mi Calm Calm - N/A   Clear
12:55 AM 70.9 °F - 70.2 °F 98% 29.90 in 10.0 mi Calm Calm - N/A   Clear
1:15 AM 70.3 °F - 69.8 °F 98% 29.90 in 7.0 mi Calm Calm - N/A   Clear
1:35 AM 70.3 °F - 70.0 °F 99% 29.90 in 7.0 mi Calm Calm - N/A   Clear
1:55 AM 70.2 °F - 70.0 °F 99% 29.90 in 7.0 mi Calm Calm - N/A   Clear
2:15 AM 70.7 °F - 70.3 °F 99% 29.91 in 10.0 mi Calm Calm - N/A   Clear
2:55 AM 71.1 °F - 70.5 °F 98% 29.90 in 4.0 mi Calm Calm - N/A   Clear
3:15 AM 70.9 °F - 70.5 °F 99% 29.90 in 1.8 mi Calm Calm - N/A   Mist
3:35 AM 70.9 °F - 70.7 °F 99% 29.90 in 4.0 mi Calm Calm - N/A   Clear
3:55 AM 70.2 °F - 70.0 °F 99% 29.90 in 5.0 mi Calm Calm - N/A   Clear
4:15 AM 70.5 °F - 70.3 °F 99% 29.90 in 7.0 mi Calm Calm - N/A   Clear
4:35 AM 69.6 °F - 69.4 °F 99% 29.90 in 1.5 mi Calm Calm - N/A   Mist
4:55 AM 68.5 °F - 68.4 °F 99% 29.90 in 3.0 mi Calm Calm - N/A   Clear
5:15 AM 68.5 °F - 68.4 °F 99% 29.91 in 4.0 mi Calm Calm - N/A   Clear
5:35 AM 67.6 °F - 67.5 °F 99% 29.91 in 4.0 mi Calm Calm - N/A   Clear
5:55 AM 68.4 °F - 68.0 °F 99% 29.91 in 3.0 mi Calm Calm - N/A   Clear
6:15 AM 67.8 °F - 67.6 °F 99% 29.91 in 3.0 mi Calm Calm - N/A   Scattered Clouds
6:35 AM 66.9 °F - 66.7 °F 99% 29.92 in 2.0 mi Calm Calm - N/A   Mostly Cloudy
6:55 AM 67.5 °F - 67.3 °F 99% 29.92 in 1.5 mi Calm Calm - N/A   Scattered Clouds
7:15 AM 68.0 °F - 67.8 °F 99% 29.93 in 3.0 mi Calm Calm - N/A   Clear
7:35 AM 68.4 °F - 68.2 °F 99% 29.93 in 2.5 mi Calm Calm - N/A   Clear
7:55 AM 69.8 °F - 69.6 °F 99% 29.93 in 4.0 mi Calm Calm - N/A   Clear
8:15 AM 71.4 °F - 71.2 °F 99% 29.93 in 5.0 mi Calm Calm - N/A   Clear
8:35 AM 72.7 °F - 72.1 °F 98% 29.93 in 7.0 mi Calm Calm - N/A   Clear
8:55 AM 74.5 °F - 72.5 °F 94% 29.93 in 10.0 mi Calm Calm - N/A   Clear
9:15 AM 76.1 °F - 72.1 °F 87% 29.93 in 10.0 mi Calm Calm - N/A   Clear
9:35 AM 78.3 °F - 71.8 °F 80% 29.92 in 10.0 mi Calm Calm - N/A   Clear
9:55 AM 80.2 °F 83.5 °F 70.2 °F 71% 29.93 in 10.0 mi Calm Calm - N/A   Clear
10:15 AM 81.1 °F 84.5 °F 69.8 °F 68% 29.94 in 10.0 mi ENE 3.5 mph - N/A   Clear
10:35 AM 82.6 °F 85.9 °F 68.7 °F 63% 29.94 in 10.0 mi NE 4.6 mph - N/A   Clear
10:55 AM 83.5 °F 86.4 °F 68.0 °F 59% 29.94 in 10.0 mi Calm Calm - N/A   Clear
11:15 AM 84.0 °F 87.8 °F 69.1 °F 61% 29.93 in 10.0 mi NNE 5.8 mph - N/A   Clear
11:35 AM 85.6 °F 89.4 °F 68.9 °F 57% 29.93 in 10.0 mi Calm Calm - N/A   Clear
11:55 AM 86.0 °F 89.7 °F 68.7 °F 56% 29.93 in 10.0 mi Calm Calm - N/A   Clear
12:15 PM 86.9 °F 90.6 °F 68.2 °F 54% 29.93 in 10.0 mi ENE 4.6 mph - N/A   Clear
12:35 PM 88.2 °F 92.1 °F 68.7 °F 52% 29.93 in 10.0 mi NE 4.6 mph - N/A   Clear
12:55 PM 88.9 °F 92.6 °F 68.2 °F 50% 29.92 in 10.0 mi NNE 5.8 mph - N/A   Clear
1:15 PM 89.8 °F 93.3 °F 67.6 °F 48% 29.92 in 10.0 mi East 5.8 mph - N/A   Clear
1:55 PM 90.3 °F 94.3 °F 68.0 °F 48% 29.91 in 10.0 mi NNE 4.6 mph - N/A   Clear
2:15 PM 91.2 °F 94.6 °F 67.3 °F 45% 29.90 in 10.0 mi East 6.9 mph - N/A   Clear
2:35 PM 91.9 °F 95.4 °F 67.1 °F 44% 29.89 in 10.0 mi East 3.5 mph - N/A   Clear
2:55 PM 92.5 °F 95.9 °F 66.7 °F 43% 29.88 in 10.0 mi ENE 5.8 mph - N/A   Clear
3:15 PM 92.8 °F 95.6 °F 65.8 °F 41% 29.88 in 10.0 mi Calm Calm - N/A   Clear
3:35 PM 93.0 °F 95.5 °F 65.5 °F 40% 29.88 in 10.0 mi East 5.8 mph - N/A   Clear
3:55 PM 93.0 °F 95.0 °F 64.8 °F 39% 29.87 in 10.0 mi NE 5.8 mph - N/A   Clear
4:15 PM 93.6 °F 95.9 °F 65.1 °F 39% 29.88 in 10.0 mi NE 5.8 mph - N/A   Clear
4:35 PM 93.6 °F 95.5 °F 64.6 °F 38% 29.87 in 10.0 mi ENE 5.8 mph - N/A   Clear
4:55 PM 93.4 °F 95.2 °F 64.2 °F 38% 29.87 in 10.0 mi NE 4.6 mph - N/A   Clear
5:15 PM 93.4 °F 95.2 °F 64.2 °F 38% 29.87 in 10.0 mi ENE 6.9 mph - N/A   Clear
5:35 PM 93.0 °F 95.0 °F 64.6 °F 39% 29.87 in 10.0 mi East 4.6 mph - N/A   Clear
5:55 PM 92.7 °F 94.9 °F 64.8 °F 40% 29.87 in 10.0 mi East 6.9 mph - N/A   Clear
6:15 PM 92.1 °F 94.4 °F 65.1 °F 41% 29.86 in 10.0 mi ENE 5.8 mph - N/A   Clear
6:35 PM 91.6 °F 93.9 °F 65.3 °F 42% 29.85 in 10.0 mi East 4.6 mph - N/A   Clear
6:55 PM 90.3 °F 93.0 °F 66.0 °F 45% 29.86 in 10.0 mi East 3.5 mph - N/A   Clear
7:15 PM 88.9 °F 91.8 °F 66.7 °F 48% 29.86 in 10.0 mi Calm Calm - N/A   Clear
7:35 PM 87.6 °F 90.4 °F 66.9 °F 50% 29.86 in 10.0 mi East 4.6 mph - N/A   Clear
7:55 PM 85.8 °F 88.8 °F 67.3 °F 54% 29.86 in 10.0 mi East 4.6 mph - N/A   Clear
8:15 PM 84.2 °F 87.1 °F 67.5 °F 57% 29.86 in 10.0 mi ESE 6.9 mph - N/A   Clear
8:35 PM 83.1 °F 85.9 °F 67.5 °F 59% 29.86 in 10.0 mi ESE 6.9 mph - N/A   Clear
8:55 PM 81.7 °F 84.5 °F 68.0 °F 63% 29.87 in 10.0 mi SE 4.6 mph - N/A   Clear
9:15 PM 80.4 °F 83.2 °F 68.4 °F 67% 29.86 in 10.0 mi SE 5.8 mph - N/A   Clear
9:35 PM 79.5 °F - 68.4 °F 69% 29.87 in 10.0 mi Calm Calm - N/A   Clear
9:55 PM 79.3 °F - 68.7 °F 70% 29.87 in 10.0 mi East 3.5 mph - N/A   Clear
10:15 PM 78.1 °F - 69.1 °F 74% 29.89 in 10.0 mi Calm Calm - N/A   Clear
10:35 PM 77.7 °F - 69.1 °F 75% 29.90 in 10.0 mi NE 3.5 mph - N/A   Clear
10:55 PM 77.0 °F - 69.6 °F 78% 29.91 in 10.0 mi East 5.8 mph - N/A   Clear
11:15 PM 77.5 °F - 69.8 °F 77% 29.91 in 10.0 mi East 5.8 mph - N/A   Clear
11:35 PM 77.4 °F - 69.8 °F 77% 29.91 in 10.0 mi ESE 6.9 mph - N/A   Clear
11:55 PM 78.3 °F - 69.8 °F 75% 29.91 in 10.0 mi ESE 6.9 mph - N/A   Clear